"2010-04-09 00:00:00",9100,0.778,27.66,28.88,0.488,12.57,105.8555,14.26,15.41,14.34,0,110.8,13.23,15.06,349.7
"2010-04-09 00:00:30",9101,0.863,48.72,5.703,0.268,12.27,105.8309,14.2,15.38,14.29,0,110.8,13.23,15.00,10.7
"2010-04-09 00:01:00",9102,0.546,60.1,21.13,0.286,12.46,105.8026,14.13,15.33,14.44,0,110.8,13.24,14.93,22.1
"2010-04-09 00:01:30",9103,0.17,319.8,44.28,0.147,12.84,105.7738,14.05,15.26,15.12,0,110.8,13.24,14.85,281.8
"2010-04-09 00:02:00",9104,0.283,285.1,43.57,0.225,12.65,105.7456,13.98,15.22,15.19,0,110.8,13.24,14.78,247.1
"2010-04-09 00:02:30",9105,0.574,240.6,11.04,0.126,12.32,105.7276,13.94,15.16,14.91,0,110.8,13.24,14.74,202.6
"2010-04-09 00:03:00",9106,0.629,287.6,29.12,0.177,12.33,105.7124,13.9,15.11,14.79,0,110.8,13.24,14.70,249.6
"2010-04-09 00:03:30",9107,0.823,316.4,14.02,0.169,12.25,105.7077,13.88,15.06,14.7,0,110.8,13.24,14.68,278.4
"2010-04-09 00:04:00",9108,0.778,301.4,8.84,0.129,12.3,105.6861,13.83,15.01,15.06,0,110.8,13.24,14.63,263.4
"2010-04-09 00:04:30",9109,0.576,289.2,12.58,0.204,12.35,105.6799,13.81,14.96,15.28,0,110.8,13.24,14.61,251.2
"2010-04-09 00:05:00",9110,0.869,291.7,19.3,0.167,12.34,105.676,13.8,14.94,15.43,0,110.8,13.24,14.60,253.7
"2010-04-09 00:05:30",9111,0.615,247.7,12.35,0.223,12.37,105.6778,13.81,14.91,15.21,0,110.8,13.24,14.61,209.7
"2010-04-09 00:06:00",9112,0.55,242.2,21.65,0.134,12.37,105.6637,13.77,14.89,15.2,0,110.8,13.24,14.57,204.2
"2010-04-09 00:06:30",9113,0.608,307.1,24.9,0.144,12.34,105.6716,13.79,14.88,15.28,0,110.8,13.24,14.59,269.1
"2010-04-09 00:07:00",9114,0.629,321.4,7.906,0.126,12.28,105.6766,13.8,14.87,15.34,0,110.8,13.24,14.60,283.4
"2010-04-09 00:07:30",9115,0.488,308,7.931,0.071,12.25,105.6813,13.82,14.88,15.4,0,110.8,13.23,14.62,270.0
"2010-04-09 00:08:00",9116,0.566,310.6,6.779,0.123,12.15,105.7061,13.88,14.88,15.44,0,110.8,13.23,14.68,272.6
"2010-04-09 00:08:30",9117,0.124,287.6,14.46,0.096,12.04,105.7089,13.89,14.9,15.38,0,110.8,13.23,14.69,249.6
"2010-04-09 00:09:00",9118,0.386,276.9,22.5,0.146,12.16,105.7258,13.93,14.93,15.28,0,110.8,13.23,14.73,238.9
"2010-04-09 00:09:30",9119,0.852,199.3,20,0.445,12.12,105.7441,13.98,14.96,15.21,0,110.8,13.23,14.78,161.3
"2010-04-09 00:10:00",9120,0.777,179.1,23.01,0.328,12.28,105.7572,14.01,15,15.1,0,110.8,13.23,14.81,141.1
"2010-04-09 00:10:30",9121,1.727,140.9,2.88,0.306,12.27,105.7776,14.06,15.04,15.01,0,110.8,13.23,14.86,102.9
"2010-04-09 00:11:00",9122,1.688,121.4,16.9,0.287,12.52,105.7896,14.09,15.07,14.6,0,110.8,13.23,14.90,83.4
"2010-04-09 00:11:30",9123,1.497,71.74,17.49,0.209,12.59,105.8077,14.14,15.12,14.35,0,110.8,13.23,14.94,33.7
"2010-04-09 00:12:00",9124,1.312,32.85,16.69,0.379,12.68,105.8101,14.15,15.14,14.36,0,110.8,13.22,14.95,354.9
"2010-04-09 00:12:30",9125,0.56,128.8,52.45,0.407,12.69,105.8304,14.2,15.17,14.28,0,110.8,13.22,15.00,90.8
"2010-04-09 00:13:00",9126,0.697,118.1,56.93,0.228,12.67,105.8471,14.24,15.2,14.25,0,110.8,13.22,15.04,80.1
"2010-04-09 00:13:30",9127,0.62,59.53,43.11,0.358,12.74,105.8477,14.24,15.22,14.26,0,110.8,13.22,15.04,21.5
"2010-04-09 00:14:00",9128,0.787,138.5,38.07,0.258,12.6,105.8486,14.25,15.23,14.27,0,110.8,13.22,15.05,100.5
"2010-04-09 00:14:30",9129,0.715,133.8,29.64,0.432,12.59,105.8441,14.23,15.23,14.27,0,110.8,13.22,15.04,95.8
"2010-04-09 00:15:00",9130,0.872,138.8,7.788,0.217,12.55,105.8472,14.24,15.23,14.43,0,110.8,13.22,15.04,100.8
"2010-04-09 00:15:30",9131,1.454,143.5,6.368,0.215,12.5,105.8442,14.23,15.24,14.71,0,110.8,13.22,15.04,105.5
"2010-04-09 00:16:00",9132,1.167,162.2,10.91,0.314,12.61,105.8137,14.16,15.24,15.25,0,110.8,13.22,14.96,124.2
"2010-04-09 00:16:30",9133,1.283,156.5,10.04,0.135,12.57,105.8161,14.16,15.21,15.24,0,110.8,13.22,14.96,118.5
"2010-04-09 00:17:00",9134,1.336,154.2,12.43,0.227,12.71,105.8109,14.15,15.2,15.51,0,110.8,13.22,14.95,116.2
"2010-04-09 00:17:30",9135,0.939,127,10.21,0.118,12.71,105.776,14.06,15.17,15.47,0,110.8,13.22,14.86,89.0
"2010-04-09 00:18:00",9136,0.883,122.5,14.89,0.376,12.73,105.7471,13.99,15.12,15.03,0,110.8,13.23,14.79,84.5
"2010-04-09 00:18:30",9137,1.141,139,11.85,0.193,12.67,105.7164,13.91,15.09,15.18,0,110.8,13.23,14.71,101.0
"2010-04-09 00:19:00",9138,0.917,143.5,5.218,0.103,12.69,105.7151,13.9,15.03,15.16,0,110.8,13.23,14.70,105.5
"2010-04-09 00:19:30",9139,0.629,155.3,6.677,0.185,12.66,105.6897,13.84,15.01,15.24,0,110.8,13.23,14.64,117.3
"2010-04-09 00:20:00",9140,0.533,149.1,10.24,0.182,12.67,105.6811,13.82,14.95,15.31,0,110.8,13.23,14.62,111.1
"2010-04-09 00:20:30",9141,0.431,128.5,11.85,0.187,12.67,105.6787,13.81,14.9,15.29,0,110.8,13.23,14.61,90.5
"2010-04-09 00:21:00",9142,0.413,124.1,22.71,0.226,12.64,105.6683,13.78,14.88,15.26,0,110.8,13.23,14.58,86.1
"2010-04-09 00:21:30",9143,0.235,60.91,35.59,0.216,12.84,105.6591,13.76,14.85,15.52,0,110.8,13.23,14.56,22.9
"2010-04-09 00:22:00",9144,0.103,54.18,46.24,0.124,12.99,105.645,13.72,14.84,16.51,0,110.8,13.23,14.52,16.2
"2010-04-09 00:22:30",9145,0.354,64.36,22.3,0.155,12.69,105.6459,13.73,14.82,16.41,0,110.8,13.23,14.53,26.4
"2010-04-09 00:23:00",9146,0.45,140.7,18.66,0.192,12.49,105.6441,13.72,14.8,15.99,0,110.8,13.23,14.52,102.7
"2010-04-09 00:23:30",9147,0.662,132.7,5.848,0.106,12.5,105.6427,13.72,14.77,15.61,0,110.8,13.23,14.52,94.7
"2010-04-09 00:24:00",9148,0.398,145,6.39,0.101,12.59,105.6157,13.65,14.76,15.5,0,110.8,13.23,14.45,107.0
"2010-04-09 00:24:30",9149,0.334,199,14.11,0.188,12.56,105.6127,13.64,14.74,15.45,0,110.8,13.23,14.44,161.0
"2010-04-09 00:25:00",9150,0.756,183.7,13.59,0.162,12.55,105.608,13.63,14.7,15.49,0,110.8,13.23,14.43,145.7
"2010-04-09 00:25:30",9151,0.432,148.7,13.25,0.133,12.59,105.6086,13.63,14.68,15.54,0,110.8,13.23,14.43,110.7
"2010-04-09 00:26:00",9152,0.71,236.6,39,0.543,12.53,105.6019,13.61,14.66,15.36,0,110.8,13.23,14.41,198.6
"2010-04-09 00:26:30",9153,1.187,225,13.04,0.204,12.51,105.6029,13.62,14.65,15.42,0,110.8,13.23,14.42,187.0
"2010-04-09 00:27:00",9154,1.246,208.5,3.004,0.085,12.5,105.6106,13.64,14.65,15.47,0,110.8,13.23,14.44,170.5
"2010-04-09 00:27:30",9155,0.653,208.2,29.11,0.429,12.69,105.6097,13.63,14.66,15.37,0,110.8,13.23,14.43,170.2
"2010-04-09 00:28:00",9156,0.065,253.2,28.02,0.084,12.57,105.6103,13.63,14.65,15.41,0,110.8,13.23,14.43,215.2
"2010-04-09 00:28:30",9157,0.099,302,55.86,0.161,12.45,105.6112,13.64,14.65,15.5,0,110.8,13.23,14.44,264.0
"2010-04-09 00:29:00",9158,0.237,354.8,30.95,0.104,12.62,105.6124,13.64,14.66,15.55,0,110.8,13.22,14.44,316.8
"2010-04-09 00:29:30",9159,0.298,323.3,9.61,0.116,12.39,105.6374,13.7,14.68,15.63,0,110.8,13.22,14.50,285.3
"2010-04-09 00:30:00",9160,1.062,284.4,24.65,0.354,12.5,105.6441,13.72,14.7,15.61,0,110.8,13.22,14.52,246.4
"2010-04-09 00:30:30",9161,1.256,265.2,5.717,0.14,12.63,105.649,13.73,14.73,15.66,0,110.8,13.22,14.53,227.2
"2010-04-09 00:31:00",9162,0.967,269.1,13.61,0.216,12.66,105.6732,13.8,14.75,15.7,0,110.8,13.22,14.60,231.1
"2010-04-09 00:31:30",9163,1.053,287.5,20.23,0.192,12.7,105.679,13.81,14.77,15.57,0,110.8,13.22,14.61,249.5
"2010-04-09 00:32:00",9164,1.011,282.1,14.32,0.355,12.69,105.6781,13.81,14.79,15.56,0,110.8,13.22,14.61,244.1
"2010-04-09 00:32:30",9165,1.449,268.4,7.961,0.152,12.78,105.6793,13.81,14.81,15.79,0,110.8,13.22,14.61,230.4
"2010-04-09 00:33:00",9166,1.515,251.5,6.411,0.141,12.76,105.6796,13.81,14.81,15.93,0,110.8,13.22,14.61,213.5
"2010-04-09 00:33:30",9167,1.488,240.3,7.523,0.201,12.76,105.6652,13.78,14.79,16.22,0,110.8,13.22,14.58,202.3
"2010-04-09 00:34:00",9168,1.752,247,17.19,0.66,12.88,105.6461,13.73,14.79,15.85,0,110.8,13.22,14.53,209.0
"2010-04-09 00:34:30",9169,3.235,283.4,4.499,0.284,13.11,105.6658,13.78,14.78,14.78,0,110.8,13.22,14.58,245.4
"2010-04-09 00:35:00",9170,2.792,278.5,4.768,0.314,13.18,105.6814,13.82,14.79,14.51,0,110.8,13.22,14.62,240.5
"2010-04-09 00:35:30",9171,2.9,261.4,9.02,0.338,13.25,105.6852,13.83,14.79,14.55,0,110.8,13.23,14.63,223.4
"2010-04-09 00:36:00",9172,2.764,254.4,6.875,0.225,13.26,105.6973,13.86,14.83,14.54,0,110.8,13.23,14.66,216.4
"2010-04-09 00:36:30",9173,3.664,274.2,3.861,0.548,13.49,105.7241,13.93,14.84,14.46,0,110.8,13.23,14.73,236.2
"2010-04-09 00:37:00",9174,3.964,284.2,3.198,0.369,13.54,105.7368,13.96,14.87,14,0,110.8,13.23,14.76,246.2
"2010-04-09 00:37:30",9175,3.339,282.2,6.029,0.214,13.53,105.7356,13.96,14.89,13.9,0,110.8,13.23,14.76,244.2
"2010-04-09 00:38:00",9176,3.559,273.4,2.539,0.328,13.54,105.7391,13.96,14.91,14.23,0,110.8,13.23,14.77,235.4
"2010-04-09 00:38:30",9177,3.586,277.9,2.877,0.304,13.66,105.7515,14,14.92,14.22,0,110.8,13.23,14.80,239.9
"2010-04-09 00:39:00",9178,3.333,280.6,2.737,0.144,13.6,105.7591,14.02,14.94,14.18,0,110.8,13.23,14.82,242.6
"2010-04-09 00:39:30",9179,3.255,269.7,3.136,0.171,13.66,105.7681,14.04,14.97,14.29,0,110.8,13.23,14.84,231.7
"2010-04-09 00:40:00",9180,3.33,268.7,3.5,0.183,13.57,105.7712,14.05,14.98,14.34,0,110.8,13.23,14.85,230.7
"2010-04-09 00:40:30",9181,2.988,258.5,3.487,0.246,13.57,105.7712,14.05,14.98,14.39,0,110.8,13.24,14.85,220.5
"2010-04-09 00:41:00",9182,3.079,265.8,2.5,0.247,13.66,105.7712,14.05,15,14.2,0,110.8,13.24,14.85,227.8
"2010-04-09 00:41:30",9183,2.947,263.8,5.069,0.159,13.69,105.7712,14.05,15.02,13.94,0,110.8,13.24,14.85,225.8
"2010-04-09 00:42:00",9184,4.344,255.6,10.98,1.244,15.14,105.7712,14.05,15.16,14.21,0,110.8,13.2,14.85,217.6
"2010-04-09 00:42:30",9185,6.174,263,7.472,0.992,18.53,105.7667,14.04,15.35,14.7,0,110.8,13.2,14.84,225.0
"2010-04-09 00:43:00",9186,6.516,276.8,7.699,0.869,18.25,105.7383,13.96,15.38,14.5,0,110.8,13.2,14.76,238.8
"2010-04-09 00:43:30",9187,4.173,284.3,7.816,1.506,14.11,105.7374,13.96,15.01,13.86,0,110.8,13.2,14.76,246.3
"2010-04-09 00:44:00",9188,2.034,275.7,5.568,0.447,11.69,105.7369,13.96,14.96,13.83,0,110.7,13.23,14.76,237.7
"2010-04-09 00:44:30",9189,2.134,279,5.731,0.392,11.18,105.7329,13.95,14.97,13.79,0,110.8,13.23,14.75,241.0
"2010-04-09 00:45:00",9190,2.62,267.6,9.07,0.159,11.21,105.7186,13.91,14.95,13.84,0,110.8,13.23,14.71,229.6
"2010-04-09 00:45:30",9191,2.93,264.7,1.863,0.19,11.3,105.7093,13.89,14.95,13.89,0,110.7,13.24,14.69,226.7
"2010-04-09 00:46:00",9192,3.278,270.6,3.836,0.175,11.65,105.7162,13.91,14.96,13.81,0,110.7,13.23,14.71,232.6
"2010-04-09 00:46:30",9193,3.509,275.8,2.832,0.218,11.89,105.7266,13.93,14.93,13.57,0,110.7,13.23,14.73,237.8
"2010-04-09 00:47:00",9194,3.357,291.5,3.233,0.165,12.29,105.7265,13.93,14.92,13.49,0,110.7,13.23,14.73,253.5
"2010-04-09 00:47:30",9195,3.519,288.7,1.695,0.102,12.58,105.7219,13.92,14.93,13.32,0,110.7,13.23,14.72,250.7
"2010-04-09 00:48:00",9196,3.922,292.3,2.475,0.257,12.74,105.7068,13.88,14.92,13.51,0,110.7,13.23,14.68,254.3
"2010-04-09 00:48:30",9197,3.985,296.1,2.626,0.249,12.96,105.7041,13.88,14.91,13.75,0,110.7,13.24,14.68,258.1
"2010-04-09 00:49:00",9198,3.442,302.9,1.264,0.116,13.06,105.7053,13.88,14.9,13.89,0,110.7,13.24,14.68,264.9
"2010-04-09 00:49:30",9199,3.321,301.6,2.711,0.211,13.25,105.7056,13.88,14.88,13.95,0,110.7,13.24,14.68,263.6
"2010-04-09 00:50:00",9200,3.388,297.2,1.723,0.274,13.36,105.7045,13.88,14.87,14.02,0,110.7,13.24,14.68,259.2
"2010-04-09 00:50:30",9201,3.143,298.7,3.201,0.204,13.48,105.6929,13.85,14.88,14.05,0,110.7,13.24,14.65,260.7
"2010-04-09 00:51:00",9202,3.374,300.1,4.412,0.112,13.5,105.6817,13.82,14.88,14.09,0,110.7,13.24,14.62,262.1
"2010-04-09 00:51:30",9203,3.056,306.5,2.737,0.234,13.53,105.6721,13.79,14.85,14.11,0,110.7,13.24,14.59,268.5
"2010-04-09 00:52:00",9204,2.597,301.3,4.072,0.213,13.62,105.6718,13.79,14.86,14.14,0,110.7,13.25,14.59,263.3
"2010-04-09 00:52:30",9205,2.823,289.5,6.039,0.465,13.64,105.6718,13.79,14.86,14.19,0,110.7,13.25,14.59,251.5
"2010-04-09 00:53:00",9206,3.536,284.9,4.448,0.738,14.39,105.6578,13.76,14.92,14.41,0,110.7,13.21,14.56,246.9
"2010-04-09 00:53:30",9207,4.117,288.7,4.875,1.388,15.14,105.6384,13.71,14.87,14.54,0,110.7,13.21,14.51,250.7
"2010-04-09 00:54:00",9208,3.735,297.4,8.07,0.982,14.77,105.6381,13.71,14.89,14.5,0,110.7,13.21,14.51,259.4
"2010-04-09 00:54:30",9209,3.738,301.8,4.091,0.465,13.23,105.6325,13.69,14.77,14.59,0,110.7,13.25,14.49,263.8
"2010-04-09 00:55:00",9210,7.217,307.8,7.135,1.461,15.95,105.6124,13.64,14.89,14.33,0,110.7,13.21,14.44,269.8
"2010-04-09 00:55:30",9211,7.568,319.9,8.1,1.245,16.05,105.6119,13.64,14.98,14.46,0,110.7,13.21,14.44,281.9
"2010-04-09 00:56:00",9212,6.915,312.8,9.14,1.434,15,105.6109,13.64,14.94,14.43,0,110.7,13.21,14.44,274.8
"2010-04-09 00:56:30",9213,5.162,307.1,3.703,0.27,11.65,105.6129,13.64,14.76,14.1,0,110.6,13.25,14.44,269.1
"2010-04-09 00:57:00",9214,5.906,310.8,2.779,0.352,11.39,105.6183,13.66,14.71,14.19,0,110.6,13.25,14.46,272.8
"2010-04-09 00:57:30",9215,5.909,312.8,1.646,0.367,11.7,105.6278,13.68,14.71,14.24,0,110.6,13.25,14.48,274.8
"2010-04-09 00:58:00",9216,5.355,310.6,2.089,0.307,12.03,105.6232,13.67,14.69,13.89,0,110.6,13.25,14.47,272.6
"2010-04-09 00:58:30",9217,5.477,315.7,8.32,1.024,12.91,105.6059,13.62,14.69,13.65,0,110.6,13.21,14.42,277.7
"2010-04-09 00:59:00",9218,4.935,322.5,4.541,0.99,13.97,105.605,13.62,14.83,14.29,0,110.6,13.21,14.42,284.5
"2010-04-09 00:59:30",9219,5.109,308,6.311,0.936,13.53,105.6059,13.62,14.66,13.61,0,110.6,13.21,14.42,270.0
"2010-04-09 01:00:00",9220,4.646,305.7,2.798,0.401,12.67,105.6048,13.62,14.65,13.48,0,110.6,13.25,14.42,267.7
"2010-04-09 01:00:30",9221,5.641,314.1,5.178,1.132,13.56,105.5837,13.57,14.78,13.82,0,110.5,13.22,14.37,276.1
"2010-04-09 01:01:00",9222,5.922,303.6,7.585,1.513,14.09,105.5724,13.54,14.65,13.52,0,110.6,13.22,14.34,265.6
"2010-04-09 01:01:30",9223,5.704,312.1,7.293,1.511,14.37,105.5724,13.54,14.77,13.58,0,110.6,13.22,14.34,274.1
"2010-04-09 01:02:00",9224,7.229,318.7,5.694,1.26,15.89,105.5722,13.54,14.86,13.69,0,110.6,13.22,14.34,280.7
"2010-04-09 01:02:30",9225,5.161,306.8,5.955,0.91,12.06,105.5558,13.5,14.59,13.43,0,110.6,13.22,14.29,268.8
"2010-04-09 01:03:00",9226,5.015,294.7,3.191,0.109,11.39,105.5409,13.46,14.58,13.47,0,110.6,13.25,14.26,256.7
"2010-04-09 01:03:30",9227,5.5,295.4,2.358,0.246,11.5,105.5387,13.45,14.57,13.47,0,110.6,13.25,14.25,257.4
"2010-04-09 01:04:00",9228,5.322,290.9,3.563,0.103,11.93,105.5387,13.45,14.54,13.48,0,110.6,13.25,14.25,252.9
"2010-04-09 01:04:30",9229,6.245,302.5,7.303,1.501,14.12,105.5381,13.45,14.6,13.68,0,110.6,13.22,14.25,264.5
"2010-04-09 01:05:00",9230,5.957,301.9,7.531,1.222,14.47,105.5213,13.41,14.68,14.14,0,110.6,13.22,14.21,263.9
"2010-04-09 01:05:30",9231,5.418,291.7,1.956,0.153,12.64,105.5122,13.38,14.52,13.89,0,110.6,13.25,14.18,253.7
"2010-04-09 01:06:00",9232,5.416,291.6,7.395,0.977,13.33,105.5174,13.4,14.61,13.89,0,110.6,13.22,14.20,253.6
"2010-04-09 01:06:30",9233,5.909,296.3,5.987,1.296,14.26,105.5242,13.41,14.5,13.78,0,110.6,13.22,14.21,258.3
"2010-04-09 01:07:00",9234,5.784,302,7.205,0.762,13.02,105.5288,13.43,14.48,13.75,0,110.6,13.22,14.23,264.0
"2010-04-09 01:07:30",9235,7.613,317.3,7.18,1.327,16.03,105.5227,13.41,14.71,13.93,0,110.6,13.22,14.21,279.3
"2010-04-09 01:08:00",9236,7.042,313.6,8.53,1.357,14.32,105.507,13.37,14.61,13.93,0,110.6,13.22,14.17,275.6
"2010-04-09 01:08:30",9237,5.858,300.4,1.698,0.141,11.65,105.5059,13.37,14.42,13.78,0,110.6,13.26,14.17,262.4
"2010-04-09 01:09:00",9238,5.947,299.9,1.893,0.095,11.51,105.5068,13.37,14.41,13.84,0,110.6,13.26,14.17,261.9
"2010-04-09 01:09:30",9239,7.295,302.8,6.515,1.614,13.57,105.5056,13.37,14.57,13.97,0,110.6,13.23,14.17,264.8
"2010-04-09 01:10:00",9240,7.35,296.8,5.626,1.341,13.05,105.4887,13.32,14.5,13.85,0,110.6,13.23,14.12,258.8
"2010-04-09 01:10:30",9241,7.573,297.2,5.026,0.923,13.2,105.4733,13.28,14.44,13.74,0,110.6,13.23,14.08,259.2
"2010-04-09 01:11:00",9242,8.32,302.6,7.288,1.396,14.64,105.473,13.28,14.54,13.88,0,110.6,13.23,14.08,264.6
"2010-04-09 01:11:30",9243,6.641,298.4,2.62,0.184,12.75,105.473,13.28,14.45,13.75,0,110.6,13.27,14.08,260.4
"2010-04-09 01:12:00",9244,7.179,293.7,4.659,1.142,13.18,105.4645,13.26,14.33,13.64,0,110.6,13.23,14.06,255.7
"2010-04-09 01:12:30",9245,7.882,300.5,6.454,1.359,15.72,105.4442,13.21,14.6,14,0,110.6,13.23,14.01,262.5
"2010-04-09 01:13:00",9246,7.934,299.9,6.784,1.201,14.23,105.4392,13.2,14.51,14.04,0,110.6,13.23,13.99,261.9
"2010-04-09 01:13:30",9247,6.991,293.7,1.849,0.112,11.76,105.4392,13.2,14.29,13.78,0,110.6,13.27,13.99,255.7
"2010-04-09 01:14:00",9248,6.797,292.4,1.247,0.134,11.79,105.4279,13.17,14.28,13.84,0,110.6,13.27,13.97,254.4
"2010-04-09 01:14:30",9249,7.904,299.3,6.987,1.335,14.2,105.4088,13.12,14.41,14.02,0,110.5,13.23,13.92,261.3
"2010-04-09 01:15:00",9250,7.69,303.4,6.654,1.469,14.12,105.4081,13.12,14.3,13.83,0,110.5,13.23,13.91,265.4
"2010-04-09 01:15:30",9251,7.509,298.3,4.5,0.844,13.19,105.4134,13.13,14.33,13.84,0,110.5,13.23,13.93,260.3
"2010-04-09 01:16:00",9252,8.08,298.4,6.762,1.248,14.31,105.4164,13.14,14.24,13.74,0,110.5,13.24,13.94,260.4
"2010-04-09 01:16:30",9253,7.189,298.6,7.036,0.904,13.23,105.398,13.09,14.29,13.8,0,110.5,13.24,13.89,260.6
"2010-04-09 01:17:00",9254,9.09,305.1,8.63,1.304,14.82,105.3992,13.09,14.28,13.87,0,110.5,13.24,13.89,267.1
"2010-04-09 01:17:30",9255,9.51,308.8,6.412,1.181,15.65,105.4022,13.1,14.37,14.13,0,110.5,13.24,13.90,270.8
"2010-04-09 01:18:00",9256,8.03,302.4,7.197,1.13,12.76,105.402,13.1,14.14,14.07,0,110.5,13.24,13.90,264.4
"2010-04-09 01:18:30",9257,8.14,307,8.21,1.236,13.71,105.3855,13.06,14.27,14.39,0,110.5,13.24,13.86,269.0
"2010-04-09 01:19:00",9258,7.659,306,4.547,0.826,12.61,105.3734,13.03,14.22,14.33,0,110.5,13.24,13.83,268.0
"2010-04-09 01:19:30",9259,7.814,305.8,6.669,1.166,13.16,105.3734,13.03,14.23,14.34,0,110.5,13.24,13.83,267.8
"2010-04-09 01:20:00",9260,8.81,309.7,6.178,1.044,14.31,105.3734,13.03,14.14,14.34,0,110.5,13.24,13.83,271.7
"2010-04-09 01:20:30",9261,7.599,303.1,4.639,0.42,12.4,105.3596,12.99,14.1,14.27,0,110.5,13.27,13.79,265.1
"2010-04-09 01:21:00",9262,9.72,309,8.54,1.108,15.22,105.3402,12.94,14.13,14.46,0,110.5,13.23,13.74,271.0
"2010-04-09 01:21:30",9263,10.12,299.3,6.802,1.41,15.17,105.3396,12.94,14.27,14.3,0,110.5,13.23,13.74,261.3
"2010-04-09 01:22:00",9264,9.09,298.1,3.424,0.455,12.66,105.3343,12.93,14.17,14.21,0,110.5,13.27,13.73,260.1
"2010-04-09 01:22:30",9265,9.53,301.7,4.57,0.699,12.09,105.3081,12.86,14.08,14.34,0,110.5,13.24,13.66,263.7
"2010-04-09 01:23:00",9266,13.07,316,4.968,1.192,15.94,105.3058,12.86,14.17,14.68,0,110.5,13.23,13.65,278.0
"2010-04-09 01:23:30",9267,12.73,307.1,7.821,1.288,14.51,105.2915,12.82,14.09,15.16,0,110.5,13.24,13.62,269.1
"2010-04-09 01:24:00",9268,11.47,310,5.806,1.631,13.14,105.2723,12.77,14.07,15.54,0,110.5,13.24,13.57,272.0
"2010-04-09 01:24:30",9269,10.49,309.8,5.748,1.406,14.05,105.2558,12.73,14.15,15.78,0,110.5,13.24,13.52,271.8
"2010-04-09 01:25:00",9270,11.74,318.4,5.618,2.314,15.61,105.2457,12.7,14.06,15.96,0,110.5,13.25,13.50,280.4
"2010-04-09 01:25:30",9271,12.11,309.4,5.567,2.123,13.4,105.2363,12.68,13.9,15.87,0,110.5,13.25,13.47,271.4
"2010-04-09 01:26:00",9272,13.11,318.7,7.331,2.044,13.95,105.2267,12.65,13.92,15.95,0,110.5,13.25,13.45,280.7
"2010-04-09 01:26:30",9273,14.22,319.5,7.769,0.985,15.31,105.2122,12.62,13.94,15.95,0,110.5,13.25,13.41,281.5
"2010-04-09 01:27:00",9274,13.03,311.1,6.488,0.837,13.26,105.2044,12.6,13.75,15.9,0,110.4,13.25,13.39,273.1
"2010-04-09 01:27:30",9275,13.81,316,6.265,1.495,15.14,105.2026,12.59,13.92,16.17,0,110.5,13.25,13.39,278.0
"2010-04-09 01:28:00",9276,14.31,319.6,6.19,1.148,15.76,105.1738,12.52,13.86,16.25,0,110.4,13.25,13.31,281.6
"2010-04-09 01:28:30",9277,13.81,316.3,7.095,1.56,14.59,105.1724,12.51,13.79,16.3,0,110.5,13.25,13.31,278.3
"2010-04-09 01:29:00",9278,14.45,317,6.485,1.278,15.4,105.1654,12.5,13.78,16.27,0,110.4,13.26,13.29,279.0
"2010-04-09 01:29:30",9279,13.19,312.1,6.527,1.334,13.28,105.1397,12.43,13.65,16.08,0,110.4,13.26,13.23,274.1
"2010-04-09 01:30:00",9280,13.54,308.8,4.088,1.035,12.8,105.1386,12.43,13.66,16.32,0,110.4,13.26,13.22,270.8
"2010-04-09 01:30:30",9281,14.54,310.6,5.74,1.266,13.59,105.1276,12.4,13.55,16.04,0,110.4,13.26,13.19,272.6
"2010-04-09 01:31:00",9282,14.84,312.8,7.491,1.257,15.2,105.1076,12.35,13.71,16.32,0,110.4,13.26,13.14,274.8
"2010-04-09 01:31:30",9283,15.6,314.6,6.397,1.231,15.43,105.1048,12.34,13.7,16.46,0,110.4,13.26,13.14,276.6
"2010-04-09 01:32:00",9284,15.19,315,5.747,1.26,15.9,105.1042,12.34,13.74,16.55,0,110.4,13.26,13.13,277.0
"2010-04-09 01:32:30",9285,14.33,314.8,7.377,1.523,14.26,105.0831,12.29,13.53,16.31,0,110.4,13.26,13.08,276.8
"2010-04-09 01:33:00",9286,13.07,308.4,2.428,0.732,11.89,105.0725,12.26,13.45,16.35,0,110.4,13.26,13.05,270.4
"2010-04-09 01:33:30",9287,13.73,314.7,6.524,1.474,13.95,105.0751,12.26,13.46,16.45,0,110.4,13.26,13.06,276.7
"2010-04-09 01:34:00",9288,12.84,312.9,6.851,1.238,14.18,105.0821,12.28,13.5,16.42,0,110.4,13.26,13.08,274.9
"2010-04-09 01:34:30",9289,14.16,313.2,5.857,1.695,14.62,105.0709,12.25,13.49,16.56,0,110.4,13.26,13.05,275.2
"2010-04-09 01:35:00",9290,15.01,314.9,6.422,1.324,15.68,105.0606,12.23,13.57,16.49,0,110.4,13.26,13.02,276.9
"2010-04-09 01:35:30",9291,13.9,312.2,7.504,1.305,15.68,105.0695,12.25,13.57,16.61,0,110.4,13.27,13.05,274.2
"2010-04-09 01:36:00",9292,12.27,305.5,4.877,1.125,12.5,105.0721,12.26,13.43,16.65,0,110.4,13.27,13.05,267.5
"2010-04-09 01:36:30",9293,12.87,307.5,8.46,1.735,13.75,105.0606,12.23,13.4,16.81,0,110.4,13.27,13.02,269.5
"2010-04-09 01:37:00",9294,13.44,303.5,6.283,1.398,13.7,105.0397,12.17,13.39,16.63,0,110.4,13.27,12.97,265.5
"2010-04-09 01:37:30",9295,12.13,300.7,7.264,1.356,13.31,105.0389,12.17,13.41,17.03,0,110.4,13.27,12.97,262.7
"2010-04-09 01:38:00",9296,13.26,303.4,7.546,1.257,14.61,105.0386,12.17,13.32,17.17,0,110.4,13.27,12.97,265.4
"2010-04-09 01:38:30",9297,14.69,310,4.701,0.32,16.44,105.0239,12.13,13.52,17.35,0,110.4,13.27,12.93,272.0
"2010-04-09 01:39:00",9298,14.07,304.9,6.346,1.319,15.3,105.0051,12.09,13.4,16.79,0,110.4,13.27,12.88,266.9
"2010-04-09 01:39:30",9299,12.27,297.4,3.931,0.639,12.51,105.0051,12.09,13.3,16.47,0,110.4,13.27,12.88,259.4
"2010-04-09 01:40:00",9300,11.67,295.5,7.33,1.588,12.87,104.9949,12.06,13.18,16.15,0,110.4,13.27,12.85,257.5
"2010-04-09 01:40:30",9301,12.15,298,6.528,1.435,13.85,104.9741,12.01,13.19,16.2,0,110.4,13.27,12.80,260.0
"2010-04-09 01:41:00",9302,11.77,293.8,4.192,0.918,12.25,104.9712,12,13.17,16.23,0,110.4,13.27,12.79,255.8
"2010-04-09 01:41:30",9303,14.47,307.2,4.555,1.045,16.86,104.9712,12,13.3,16.48,0,110.3,13.27,12.79,269.2
"2010-04-09 01:42:00",9304,13.55,303.3,6.082,1.266,15.28,104.9712,12,13.35,16.53,0,110.4,13.28,12.79,265.3
"2010-04-09 01:42:30",9305,13.73,306.9,5.37,1.032,15.59,104.962,11.98,13.22,16.54,0,110.4,13.28,12.77,268.9
"2010-04-09 01:43:00",9306,13.2,305.2,6.699,1.562,13.98,104.9463,11.94,13.16,16.67,0,110.4,13.28,12.73,267.2
"2010-04-09 01:43:30",9307,12.33,304.2,7.475,0.941,13.57,104.9457,11.93,13.15,16.79,0,110.3,13.28,12.73,266.2
"2010-04-09 01:44:00",9308,12.03,299.6,6.246,1.3,13.1,104.9543,11.96,13.11,16.85,0,110.3,13.28,12.75,261.6
"2010-04-09 01:44:30",9309,13.13,300.6,6.379,1.089,13.04,104.959,11.97,13.02,16.79,0,110.3,13.28,12.76,262.6
"2010-04-09 01:45:00",9310,14.61,308.8,5.594,1.039,16.32,104.9649,11.98,13.24,16.87,0,110.3,13.28,12.78,270.8
"2010-04-09 01:45:30",9311,13.78,309.8,6.233,1.326,15.03,104.9682,11.99,13.2,17.14,0,110.3,13.28,12.78,271.8
"2010-04-09 01:46:00",9312,13.44,310.1,6.703,1.291,14.12,104.9709,12,13.08,17.13,0,110.3,13.28,12.79,272.1
"2010-04-09 01:46:30",9313,13.35,306.8,6.895,1.622,13.9,104.967,11.99,13.09,17.28,0,110.3,13.28,12.78,268.8
"2010-04-09 01:47:00",9314,13.7,306.6,5.951,1.432,13.97,104.9639,11.98,13.08,17.09,0,110.3,13.28,12.77,268.6
"2010-04-09 01:47:30",9315,12.86,304.4,5.981,1.185,13.4,104.9594,11.97,13.1,17.06,0,110.3,13.28,12.76,266.4
"2010-04-09 01:48:00",9316,14.44,311.7,5.914,1.316,15.07,104.9492,11.94,13.1,17.08,0,110.3,13.29,12.74,273.7
"2010-04-09 01:48:30",9317,13.97,307.5,8.27,1.427,15.53,104.9422,11.92,13.22,17.11,0,110.3,13.29,12.72,269.5
"2010-04-09 01:49:00",9318,12.84,306.1,6.673,1.271,14.73,104.9394,11.92,13.16,16.97,0,110.3,13.29,12.71,268.1
"2010-04-09 01:49:30",9319,12.21,303.4,7.006,1.274,14.19,104.9391,11.92,13.12,16.98,0,110.3,13.29,12.71,265.4